TimeEDT,TemperatureF,Dew PointF,Humidity,Sea Level PressureIn,VisibilityMPH,Wind Direction,Wind SpeedMPH,Gust SpeedMPH,PrecipitationIn,Events,Conditions,WindDirDegrees,DateUTC
12:53 AM,66.9,54.0,63,29.96,10.0,South,16.1,24.2,N/A,,Clear,180,2012-10-26 04:53:00
1:53 AM,64.9,54.0,68,29.96,10.0,South,21.9,28.8,N/A,,Clear,180,2012-10-26 05:53:00
2:53 AM,64.9,53.1,65,29.97,10.0,South,18.4,28.8,N/A,,Clear,180,2012-10-26 06:53:00
3:53 AM,64.9,53.1,65,29.98,10.0,South,20.7,32.2,N/A,,Clear,180,2012-10-26 07:53:00
4:53 AM,64.9,52.0,63,29.99,10.0,SSW,15.0,27.6,N/A,,Clear,210,2012-10-26 08:53:00
5:53 AM,66.0,52.0,60,30.01,10.0,South,19.6,29.9,N/A,,Clear,190,2012-10-26 09:53:00
6:53 AM,64.0,53.1,67,30.01,10.0,South,19.6,29.9,N/A,,Clear,180,2012-10-26 10:53:00
7:53 AM,64.0,53.1,67,30.02,9.0,South,18.4,25.3,N/A,,Clear,190,2012-10-26 11:53:00
8:53 AM,64.9,53.1,65,30.03,10.0,South,15.0,26.5,N/A,,Clear,190,2012-10-26 12:53:00
9:53 AM,66.0,54.0,65,30.05,10.0,South,15.0,23.0,N/A,,Partly Cloudy,190,2012-10-26 13:53:00
10:53 AM,69.1,54.0,58,30.04,10.0,SSW,15.0,23.0,N/A,,Clear,200,2012-10-26 14:53:00
11:53 AM,71.1,54.0,55,30.05,10.0,SW,11.5,-,N/A,,Clear,220,2012-10-26 15:53:00
12:53 PM,66.0,52.0,60,30.06,10.0,West,15.0,21.9,N/A,,Clear,280,2012-10-26 16:53:00
1:53 PM,64.9,54.0,68,30.07,10.0,WSW,12.7,-,N/A,,Clear,250,2012-10-26 17:53:00
2:53 PM,62.1,55.0,78,30.09,10.0,West,9.2,-,N/A,,Mostly Cloudy,270,2012-10-26 18:53:00
3:05 PM,60.8,53.6,77,30.10,10.0,West,10.4,-,N/A,,Overcast,260,2012-10-26 19:05:00
3:53 PM,57.9,51.1,78,30.10,10.0,North,12.7,-,N/A,,Overcast,350,2012-10-26 19:53:00
4:53 PM,55.0,46.9,74,30.11,10.0,North,12.7,-,N/A,,Overcast,360,2012-10-26 20:53:00
5:53 PM,54.0,46.0,75,30.12,10.0,North,10.4,-,N/A,,Overcast,360,2012-10-26 21:53:00
6:53 PM,52.0,45.0,77,30.16,10.0,North,15.0,-,N/A,,Overcast,350,2012-10-26 22:53:00
7:24 PM,50.0,46.4,87,30.17,10.0,North,10.4,-,N/A,,Overcast,350,2012-10-26 23:24:00
7:53 PM,50.0,46.0,86,30.19,9.0,North,8.1,-,N/A,,Overcast,350,2012-10-26 23:53:00
8:53 PM,50.0,44.1,80,30.17,10.0,North,11.5,-,N/A,,Overcast,10,2012-10-27 00:53:00
9:53 PM,48.9,46.0,90,30.19,6.0,NNE,8.1,-,0.03,Rain,Light Rain,30,2012-10-27 01:53:00
10:07 PM,48.2,46.4,93,30.18,8.0,NNE,8.1,-,0.01,Rain,Light Rain,30,2012-10-27 02:07:00
10:25 PM,48.2,46.4,93,30.18,7.0,NNE,8.1,-,0.02,Rain,Light Rain,20,2012-10-27 02:25:00
10:33 PM,48.2,46.4,93,30.19,6.0,NNE,9.2,-,0.03,Rain,Light Rain,30,2012-10-27 02:33:00
10:44 PM,48.2,46.4,93,30.18,7.0,NNE,9.2,-,0.04,Rain,Light Rain,30,2012-10-27 02:44:00
10:53 PM,48.0,45.0,89,30.18,6.0,NE,10.4,-,0.04,Rain,Light Rain,40,2012-10-27 02:53:00
11:01 PM,48.2,44.6,87,30.18,8.0,NE,11.5,-,0.01,Rain,Light Rain,40,2012-10-27 03:01:00
11:27 PM,48.2,44.6,87,30.16,9.0,NE,11.5,-,0.01,Rain,Light Rain,40,2012-10-27 03:27:00
11:30 PM,48.2,44.6,87,30.16,9.0,NE,11.5,-,0.01,Rain,Light Rain,50,2012-10-27 03:30:00
11:53 PM,48.0,45.0,89,30.17,10.0,ENE,8.1,-,0.01,Rain,Light Rain,60,2012-10-27 03:53:00